Observations for Trim Patrick St
| Time | AQI | Temp °C | Hum % | Pres Pa | CO μg/m³ | H₂S μg/m³ | NO μg/m³ | NO₂ μg/m³ | O₃ μg/m³ | SO₂ μg/m³ | PM1 μg/m³ | PM2.5 μg/m³ | PM10 μg/m³ |
|---|---|---|---|---|---|---|---|---|---|---|---|---|---|
| Monday 3 August 2026 | |||||||||||||
| 05:05 | 1 | 15.4 | 80 | 38,460 | 0.2 | 1.09 | 1.91 | 23.81 | 33.96 | 0 | 6.29 | 10.12 | 11.13 |
| 05:04 | 1 | 15.4 | 80 | 38,460 | 0.21 | 0.2 | 1.82 | 25.39 | 33.51 | 0 | 6.29 | 9.44 | 10.38 |
| 05:03 | 1 | 15.4 | 80 | 38,460 | 0.2 | 0 | 1.71 | 16.98 | 41.11 | 0 | 6.29 | 9.43 | 10.37 |
| 05:02 | 1 | 15.4 | 80 | 38,460 | 0.19 | 0 | 1.8 | 16.25 | 40.56 | 0 | 3.71 | 7.33 | 8.06 |
| 05:01 | 1 | 15.4 | 80 | 38,460 | 0.2 | 0 | 1.71 | 14.93 | 42.43 | 0 | 4.57 | 9.43 | 10.37 |
| 05:00 | 1 | 15.4 | 80 | 38,460 | 0.2 | 0 | 1.6 | 13.3 | 45.11 | 0 | 5.43 | 10.13 | 11.14 |
| 04:59 | 1 | 15.4 | 80 | 38,460 | 0.19 | 2.57 | 1.66 | 25.6 | 37.02 | 0 | 4.57 | 8.04 | 8.85 |
| 04:58 | 1 | 15.4 | 80 | 38,460 | 0.2 | 0 | 1.77 | 20.05 | 36.8 | 0 | 5.43 | 8.74 | 9.61 |
| 04:57 | 1 | 15.4 | 80 | 38,460 | 0.19 | 0 | 1.69 | 20.33 | 37.05 | 0 | 7.14 | 10.14 | 11.15 |
| 04:56 | 1 | 15.4 | 80 | 38,460 | 0.2 | 0 | 1.73 | 18.06 | 39.52 | 0 | 5.43 | 9.44 | 10.38 |
| 04:55 | 1 | 15.4 | 80 | 38,460 | 0.2 | 0 | 1.89 | 15.25 | 42.51 | 0 | 5.43 | 8.74 | 9.61 |
| 04:54 | 1 | 15.4 | 80 | 38,460 | 0.19 | 0 | 1.94 | 17.27 | 39.93 | 0 | 4.57 | 8.04 | 8.85 |
| 04:53 | 1 | 15.4 | 80 | 38,460 | 0.19 | 0 | 1.98 | 16.15 | 39.37 | 0 | 6.29 | 9.44 | 10.39 |
| 04:52 | 1 | 15.4 | 80 | 38,460 | 0.2 | 0 | 1.95 | 13.64 | 43.33 | 0 | 5.43 | 8.75 | 9.63 |
| 04:51 | 1 | 15.4 | 80 | 38,460 | 0.18 | 0 | 1.97 | 17.19 | 38.29 | 0 | 6.29 | 9.46 | 10.41 |
| 04:50 | 1 | 15.4 | 80 | 38,460 | 0.2 | 0 | 1.94 | 14.58 | 40.05 | 0 | 3.71 | 7.36 | 8.09 |
| 04:49 | 1 | 15.4 | 79 | 38,460 | 0.2 | 1.56 | 1.89 | 28.06 | 30.7 | 0 | 4.57 | 8.07 | 8.87 |
| 04:48 | 1 | 15.4 | 80 | 38,460 | 0.2 | 0 | 1.73 | 14.93 | 39.27 | 0 | 4.57 | 8.76 | 9.63 |
| 04:47 | 1 | 15.4 | 79 | 38,460 | 0.2 | 0 | 1.9 | 19.31 | 35.5 | 0 | 5.43 | 9.47 | 10.41 |
| 04:46 | 1 | 15.4 | 79 | 38,460 | 0.2 | 0 | 1.94 | 18.27 | 35.43 | 0 | 5.43 | 8.07 | 8.87 |